Location: Newark
(59.8814°N, 10.8258°E)
Time: 19:47:20
(UTC+00:00)

N. Korean satellite - Visible Passes

Search period start: 18 January 2020 00:00
Search period end: 28 January 2020 00:00
Orbit: 454 x 508 km, 97.2° (Epoch: 18 January)

Date Brightness Start Highest point End Pass type
(mag) Time Alt. Az. Time Alt. Az. Time Alt. Az.
18 Jan 9.8 04:00:14 10° NE 04:02:00 13° E 04:03:46 10° ESE visible
18 Jan 6.4 05:32:27 10° NNE 05:35:57 88° ESE 05:39:29 10° SSW visible
18 Jan 8.1 07:06:41 10° NNW 07:08:54 16° NW 07:11:08 10° W visible
18 Jan 7.4 16:17:04 10° S 16:20:25 52° WSW 16:23:49 10° NNW visible
19 Jan 7.4 05:06:59 10° NNE 05:10:24 50° E 05:13:51 10° S visible
19 Jan 7.6 06:40:45 10° N 06:43:37 24° WNW 06:46:30 10° WSW visible
19 Jan 6.4 15:51:27 10° SSE 15:54:53 87° ENE 15:58:21 10° NNW visible
19 Jan 9.8 17:27:04 10° WSW 17:28:50 13° W 17:30:37 10° NW visible
20 Jan 8.5 04:41:39 10° NNE 04:44:46 30° E 04:47:56 10° SSE visible
20 Jan 7.0 06:14:59 10° N 06:18:15 37° WNW 06:21:33 10° SW visible
20 Jan 9.3 17:00:21 10° SW 17:03:04 22° W 17:05:48 10° NW visible
21 Jan 9.4 04:16:32 10° NE 04:19:04 18° E 04:21:37 10° SE visible
21 Jan 6.4 05:49:21 10° N 05:52:50 64° WNW 05:56:21 10° SSW visible
21 Jan 8.2 16:34:11 10° SSW 16:37:23 36° W 16:40:37 10° NNW visible
22 Jan 10.0 03:52:02 10° ENE 03:53:17 11° E 03:54:32 10° ESE visible
22 Jan 6.7 05:23:48 10° NNE 05:27:20 74° ESE 05:30:53 10° S visible
22 Jan 7.9 06:57:52 10° N 07:00:22 19° NW 07:02:53 10° W visible
22 Jan 7.0 16:08:22 10° S 16:11:46 64° WSW 16:15:13 10° NNW visible
23 Jan 7.8 04:58:22 10° NNE 05:01:45 42° E 05:05:10 10° S visible
23 Jan 7.4 06:32:00 10° N 06:35:03 28° WNW 06:38:08 10° WSW visible
23 Jan 9.7 17:17:56 10° SW 17:20:06 16° W 17:22:18 10° NW visible
24 Jan 8.8 04:33:05 10° NE 04:36:05 25° E 04:39:08 10° SSE visible
24 Jan 6.8 06:06:17 10° N 06:09:40 45° WNW 06:13:05 10° SW visible
24 Jan 9.0 16:51:27 10° SSW 16:54:22 25° W 16:57:19 10° NW visible
25 Jan 9.6 04:08:05 10° NE 04:10:22 16° E 04:12:40 10° SE visible
25 Jan 6.4 05:40:39 10° NNE 05:44:13 77° WNW 05:47:48 10° SSW visible
25 Jan 7.9 16:25:25 10° S 16:28:42 43° W 16:32:02 10° NNW visible
26 Jan 7.0 05:15:09 10° NNE 05:18:41 62° ESE 05:22:15 10° S visible
26 Jan 7.8 06:49:03 10° N 06:51:48 21° WNW 06:54:35 10° WSW visible
26 Jan 6.7 15:59:41 10° SSE 16:03:07 77° WSW 16:06:36 10° NNW visible
26 Jan 10.0 17:35:59 10° WSW 17:37:10 11° W 17:38:23 10° WNW visible
27 Jan 8.2 04:49:45 10° NNE 04:53:05 36° E 04:56:26 10° SSE visible
27 Jan 7.2 06:23:15 10° N 06:26:28 33° WNW 06:29:43 10° SW visible
27 Jan 9.6 17:08:52 10° SW 17:11:22 19° W 17:13:54 10° NW visible
